QPF
0.00 0.01 0.01 0.01 0.01 0.00 0.00 0.01 0.01 0.01 0.01 0.01 0.01 0.02 0.03 0.03 0.03 0.06 0.07 0.05 0.04 0.05 0.09 0.10 0.10 0.08 0.07 0.06 0.08 0.09 0.06 0.07 0.07 0.07 0.08 0.06 0.06 0.06 0.08 0.09 0.09 0.10 0.11 0.09 0.10 0.09 0.10 0.12 0.11
0.01 0.01 0.01 0.01 0.00 0.00 0.01 0.02 0.01 0.01 0.00 0.00 0.01 0.01 0.03 0.04 0.04 0.05 0.05 0.06 0.07 0.11 0.09 0.07 0.09 0.08 0.08 0.08 0.08 0.09 0.07 0.07 0.07 0.06 0.08 0.08 0.08 0.09 0.10 0.09 0.10 0.11 0.12 0.12 0.11 0.10 0.10 0.10 0.09
0.01 0.01 0.01 0.01 0.00 0.01 0.01 0.02 0.02 0.01 0.00 0.00 0.01 0.01 0.03 0.03 0.04 0.03 0.04 0.04 0.06 0.08 0.06 0.06 0.07 0.08 0.07 0.07 0.07 0.07 0.07 0.08 0.08 0.06 0.06 0.07 0.07 0.07 0.08 0.06 0.07 0.08 0.10 0.10 0.09 0.10 0.09 0.09 0.08
0.01 0.01 0.00 0.00 0.00 0.00 0.01 0.02 0.01 0.01 0.00 0.00 0.01 0.02 0.02 0.03 0.04 0.04 0.02 0.03 0.04 0.04 0.03 0.05 0.06 0.05 0.06 0.06 0.08 0.12 0.15 0.14 0.12 0.08 0.06 0.07 0.07 0.07 0.07 0.06 0.06 0.06 0.08 0.10 0.12 0.12 0.12 0.13 0.12
0.00 0.01 0.00 0.00 0.00 0.00 0.01 0.01 0.00 0.00 0.00 0.00 0.01 0.03 0.05 0.05 0.02 0.01 0.01 0.01 0.02 0.02 0.02 0.03 0.06 0.05 0.06 0.07 0.10 0.18 0.18 0.14 0.11 0.08 0.07 0.06 0.05 0.06 0.06 0.06 0.06 0.06 0.08 0.09 0.12 0.15 0.16 0.15 0.14
0.00 0.00 0.00 0.00 0.01 0.00 0.00 0.00 0.00 0.00 0.00 0.00 0.01 0.03 0.05 0.06 0.04 0.01 0.01 0.01 0.02 0.02 0.01 0.02 0.05 0.05 0.05 0.07 0.09 0.15 0.09 0.08 0.09 0.07 0.06 0.05 0.06 0.06 0.06 0.06 0.06 0.06 0.13 0.12 0.17 0.21 0.19 0.15 0.13
0.00 0.00 0.00 0.00 0.00 0.00 0.00 0.00 0.00 0.00 0.00 0.00 0.01 0.03 0.05 0.07 0.06 0.03 0.02 0.02 0.02 0.03 0.03 0.02 0.03 0.04 0.04 0.05 0.09 0.09 0.06 0.05 0.06 0.06 0.05 0.04 0.05 0.04 0.04 0.04 0.06 0.08 0.12 0.13 0.21 0.21 0.17 0.13 0.11
0.00 0.00 0.00 0.00 0.00 0.00 0.00 0.00 0.00 0.00 0.00 0.00 0.00 0.03 0.08 0.08 0.05 0.05 0.04 0.03 0.02 0.03 0.04 0.03 0.02 0.03 0.04 0.05 0.07 0.09 0.06 0.05 0.05 0.04 0.03 0.04 0.03 0.04 0.05 0.05 0.06 0.09 0.13 0.13 0.16 0.14 0.13 0.10 0.09
0.00 0.00 0.00 0.00 0.00 0.00 0.00 0.00 0.00 0.00 0.00 0.00 0.00 0.01 0.02 0.03 0.03 0.03 0.04 0.04 0.03 0.02 0.02 0.02 0.02 0.02 0.03 0.03 0.04 0.06 0.05 0.04 0.03 0.03 0.04 0.04 0.02 0.02 0.03 0.04 0.07 0.08 0.10 0.09 0.09 0.10 0.10 0.08 0.07
0.00 0.00 0.00 0.00 0.00 0.00 0.00 0.00 0.00 0.00 0.00 0.00 0.00 0.00 0.01 0.01 0.02 0.03 0.04 0.05 0.03 0.03 0.03 0.03 0.02 0.01 0.01 0.03 0.03 0.03 0.02 0.02 0.02 0.02 0.03 0.01 0.01 0.01 0.02 0.04 0.07 0.07 0.07 0.07 0.08 0.08 0.07 0.05 0.03
0.00 0.00 0.00 0.00 0.00 0.00 0.00 0.00 0.00 0.00 0.00 0.00 0.00 0.00 0.00 0.01 0.02 0.03 0.03 0.03 0.03 0.03 0.03 0.03 0.02 0.03 0.04 0.03 0.02 0.02 0.01 0.01 0.01 0.02 0.02 0.02 0.02 0.01 0.02 0.03 0.05 0.06 0.05 0.04 0.04 0.03 0.03 0.02 0.02
0.00 0.00 0.00 0.00 0.00 0.00 0.00 0.00 0.00 0.00 0.00 0.00 0.00 0.00 0.00 0.00 0.01 0.02 0.03 0.03 0.03 0.03 0.02 0.02 0.02 0.04 0.05 0.03 0.02 0.02 0.02 0.02 0.02 0.02 0.02 0.02 0.01 0.01 0.01 0.01 0.01 0.01 0.02 0.02 0.01 0.01 0.01 0.02 0.02
0.00 0.00 0.00 0.00 0.00 0.00 0.00 0.00 0.00 0.00 0.00 0.00 0.00 0.00 0.00 0.01 0.01 0.01 0.02 0.03 0.02 0.02 0.03 0.03 0.04 0.05 0.04 0.03 0.03 0.03 0.03 0.02 0.03 0.03 0.02 0.02 0.01 0.01 0.02 0.01 0.01 0.01 0.02 0.02 0.01 0.02 0.02 0.03 0.02
0.00 0.00 0.00 0.00 0.00 0.00 0.00 0.00 0.00 0.00 0.00 0.00 0.01 0.01 0.01 0.02 0.02 0.02 0.04 0.03 0.02 0.02 0.03 0.03 0.03 0.04 0.03 0.03 0.02 0.02 0.03 0.02 0.03 0.04 0.03 0.03 0.02 0.02 0.04 0.02 0.01 0.02 0.02 0.01 0.01 0.01 0.02 0.03 0.04
0.00 0.00 0.00 0.00 0.00 0.00 0.00 0.00 0.00 0.00 0.00 0.00 0.01 0.01 0.01 0.02 0.03 0.04 0.06 0.06 0.02 0.02 0.03 0.05 0.04 0.04 0.06 0.05 0.03 0.02 0.02 0.02 0.03 0.05 0.05 0.05 0.04 0.04 0.03 0.03 0.02 0.02 0.02 0.02 0.02 0.03 0.03 0.03 0.03
0.00 0.00 0.00 0.00 0.00 0.00 0.00 0.00 0.00 0.00 0.00 0.00 0.01 0.01 0.01 0.02 0.04 0.04 0.14 0.09 0.03 0.02 0.04 0.04 0.03 0.03 0.03 0.03 0.03 0.02 0.02 0.02 0.02 0.04 0.04 0.03 0.04 0.05 0.05 0.04 0.03 0.02 0.03 0.02 0.03 0.03 0.03 0.03 0.03
0.00 0.00 0.00 0.00 0.00 0.00 0.00 0.00 0.00 0.00 0.00 0.00 0.01 0.01 0.01 0.02 0.06 0.03 0.06 0.04 0.03 0.02 0.02 0.03 0.03 0.03 0.02 0.02 0.02 0.03 0.02 0.02 0.02 0.03 0.03 0.02 0.03 0.04 0.05 0.03 0.03 0.03 0.04 0.04 0.02 0.02 0.02 0.02 0.02
0.00 0.00 0.00 0.00 0.01 0.00 0.00 0.00 0.00 0.00 0.00 0.00 0.01 0.01 0.01 0.02 0.03 0.02 0.02 0.03 0.04 0.01 0.01 0.02 0.02 0.01 0.01 0.02 0.02 0.03 0.03 0.02 0.02 0.03 0.03 0.03 0.03 0.04 0.05 0.04 0.02 0.03 0.04 0.04 0.02 0.01 0.03 0.03 0.03
0.00 0.00 0.00 0.00 0.00 0.01 0.01 0.00 0.00 0.00 0.00 0.00 0.01 0.01 0.02 0.01 0.02 0.02 0.01 0.01 0.01 0.01 0.01 0.01 0.01 0.01 0.01 0.02 0.03 0.02 0.03 0.03 0.03 0.03 0.03 0.03 0.04 0.05 0.06 0.07 0.05 0.05 0.03 0.03 0.03 0.03 0.04 0.04 0.04
0.00 0.00 0.00 0.00 0.00 0.00 0.00 0.00 0.01 0.01 0.01 0.01 0.01 0.01 0.01 0.01 0.01 0.01 0.01 0.00 0.01 0.01 0.01 0.01 0.02 0.02 0.02 0.03 0.04 0.03 0.02 0.03 0.03 0.03 0.03 0.03 0.03 0.05 0.07 0.07 0.06 0.06 0.05 0.05 0.04 0.03 0.04 0.04 0.04
0.00 0.00 0.00 0.00 0.00 0.00 0.01 0.01 0.01 0.00 0.00 0.01 0.01 0.01 0.01 0.01 0.01 0.01 0.01 0.00 0.00 0.00 0.01 0.01 0.01 0.02 0.03 0.04 0.04 0.03 0.04 0.04 0.04 0.04 0.04 0.03 0.02 0.04 0.06 0.06 0.05 0.07 0.05 0.05 0.04 0.05 0.04 0.04 0.04
0.00 0.00 0.00 0.00 0.00 0.01 0.01 0.01 0.01 0.00 0.00 0.00 0.00 0.01 0.01 0.02 0.01 0.01 0.00 0.00 0.00 0.00 0.00 0.01 0.01 0.01 0.02 0.03 0.03 0.04 0.09 0.07 0.03 0.03 0.03 0.03 0.02 0.03 0.05 0.06 0.06 0.05 0.05 0.04 0.04 0.05 0.04 0.05 0.06
0.00 0.00 0.00 0.00 0.01 0.01 0.01 0.01 0.01 0.00 0.00 0.00 0.00 0.00 0.01 0.01 0.01 0.01 0.01 0.00 0.00 0.00 0.00 0.01 0.02 0.02 0.02 0.02 0.02 0.05 0.05 0.04 0.02 0.01 0.01 0.02 0.03 0.04 0.05 0.06 0.06 0.07 0.07 0.06 0.05 0.04 0.05 0.05 0.07
0.00 0.00 0.00 0.00 0.00 0.01 0.01 0.01 0.00 0.00 0.00 0.00 0.00 0.00 0.00 0.01 0.01 0.01 0.01 0.00 0.00 0.00 0.01 0.01 0.02 0.02 0.02 0.02 0.03 0.02 0.02 0.02 0.02 0.02 0.01 0.02 0.03 0.02 0.02 0.04 0.06 0.08 0.07 0.07 0.06 0.07 0.08 0.09 0.09
0.00 0.00 0.00 0.00 0.00 0.00 0.01 0.01 0.00 0.00 0.00 0.00 0.00 0.00 0.00 0.01 0.01 0.01 0.00 0.00 0.00 0.01 0.01 0.01 0.01 0.01 0.02 0.02 0.03 0.02 0.02 0.02 0.02 0.02 0.02 0.01 0.01 0.01 0.03 0.03 0.04 0.03 0.03 0.04 0.06 0.07 0.08 0.08 0.09
0.00 0.00 0.00 0.00 0.00 0.01 0.01 0.00 0.00 0.00 0.00 0.00 0.00 0.00 0.00 0.00 0.01 0.01 0.01 0.02 0.01 0.01 0.01 0.01 0.01 0.01 0.02 0.03 0.03 0.03 0.03 0.02 0.02 0.03 0.03 0.02 0.02 0.02 0.02 0.02 0.02 0.02 0.02 0.03 0.04 0.04 0.06 0.08 0.07
0.00 0.00 0.00 0.00 0.00 0.00 0.00 0.00 0.00 0.00 0.00 0.00 0.00 0.00 0.00 0.00 0.01 0.01 0.02 0.02 0.01 0.01 0.02 0.03 0.03 0.03 0.04 0.04 0.03 0.03 0.02 0.02 0.02 0.02 0.02 0.02 0.02 0.01 0.02 0.03 0.03 0.02 0.02 0.04 0.04 0.03 0.05 0.05 0.06
0.00 0.00 0.00 0.00 0.00 0.00 0.00 0.00 0.00 0.00 0.00 0.00 0.00 0.01 0.01 0.01 0.01 0.02 0.03 0.02 0.02 0.02 0.02 0.03 0.03 0.04 0.04 0.04 0.03 0.01 0.01 0.01 0.02 0.02 0.02 0.02 0.01 0.01 0.01 0.02 0.03 0.03 0.03 0.03 0.03 0.03 0.03 0.04 0.04
0.00 0.00 0.00 0.00 0.00 0.00 0.00 0.00 0.00 0.00 0.00 0.00 0.01 0.01 0.01 0.02 0.02 0.03 0.03 0.05 0.03 0.03 0.02 0.01 0.01 0.02 0.02 0.02 0.02 0.01 0.01 0.02 0.05 0.07 0.05 0.02 0.02 0.02 0.01 0.01 0.02 0.03 0.03 0.03 0.02 0.02 0.03 0.03 0.03
0.00 0.00 0.00 0.00 0.00 0.00 0.00 0.00 0.00 0.00 0.00 0.00 0.01 0.01 0.01 0.01 0.02 0.03 0.06 0.10 0.06 0.05 0.03 0.03 0.02 0.02 0.02 0.02 0.02 0.02 0.02 0.03 0.06 0.07 0.06 0.03 0.02 0.01 0.01 0.01 0.02 0.02 0.03 0.03 0.03 0.03 0.03 0.04 0.06
MSLP
1002.51 1003.85 1005.40 1006.96 1008.37 1009.48 1010.22 1010.59 1010.67 1010.56 1010.42 1010.36 1010.43 1010.63 1010.93 1011.22 1011.41 1011.44 1011.28 1010.97 1010.57 1010.19 1009.90 1009.77 1009.82 1010.02 1010.32 1010.65 1010.94 1011.16 1011.28 1011.32 1011.33 1011.35 1011.41 1011.54 1011.73 1011.96 1012.21 1012.45 1012.66 1012.83 1012.97 1013.09 1013.23 1013.40 1013.60 1013.85 1014.14
1002.89 1004.46 1006.17 1007.81 1009.21 1010.22 1010.79 1010.93 1010.77 1010.43 1010.08 1009.86 1009.83 1009.98 1010.27 1010.60 1010.85 1010.97 1010.90 1010.70 1010.41 1010.14 1009.95 1009.91 1010.05 1010.32 1010.66 1011.02 1011.33 1011.54 1011.67 1011.71 1011.73 1011.76 1011.84 1011.98 1012.19 1012.42 1012.67 1012.89 1013.06 1013.20 1013.30 1013.39 1013.49 1013.63 1013.82 1014.06 1014.34
1003.44 1005.17 1006.97 1008.61 1009.93 1010.79 1011.16 1011.09 1010.71 1010.18 1009.69 1009.36 1009.27 1009.41 1009.71 1010.08 1010.40 1010.59 1010.63 1010.53 1010.36 1010.19 1010.11 1010.16 1010.37 1010.68 1011.05 1011.41 1011.71 1011.91 1012.02 1012.06 1012.08 1012.12 1012.21 1012.36 1012.56 1012.79 1013.01 1013.20 1013.34 1013.45 1013.52 1013.60 1013.70 1013.84 1014.03 1014.28 1014.56
1004.14 1005.96 1007.76 1009.33 1010.51 1011.19 1011.37 1011.11 1010.56 1009.91 1009.33 1008.96 1008.86 1009.01 1009.35 1009.76 1010.14 1010.40 1010.52 1010.52 1010.45 1010.38 1010.38 1010.50 1010.75 1011.08 1011.44 1011.78 1012.04 1012.21 1012.29 1012.32 1012.33 1012.38 1012.47 1012.63 1012.82 1013.04 1013.24 1013.40 1013.52 1013.60 1013.67 1013.76 1013.88 1014.05 1014.28 1014.54 1014.84
1004.94 1006.75 1008.47 1009.90 1010.90 1011.39 1011.39 1010.99 1010.35 1009.65 1009.07 1008.72 1008.65 1008.85 1009.23 1009.68 1010.11 1010.43 1010.61 1010.67 1010.68 1010.68 1010.74 1010.90 1011.16 1011.47 1011.79 1012.07 1012.28 1012.40 1012.45 1012.46 1012.48 1012.53 1012.64 1012.80 1013.00 1013.20 1013.37 1013.51 1013.62 1013.70 1013.79 1013.91 1014.08 1014.30 1014.57 1014.87 1015.19
1005.72 1007.45 1009.02 1010.26 1011.06 1011.37 1011.23 1010.74 1010.08 1009.42 1008.90 1008.64 1008.65 1008.92 1009.34 1009.83 1010.28 1010.63 1010.85 1010.96 1011.01 1011.06 1011.16 1011.32 1011.55 1011.82 1012.07 1012.28 1012.42 1012.49 1012.51 1012.52 1012.54 1012.62 1012.75 1012.93 1013.12 1013.31 1013.48 1013.60 1013.70 1013.80 1013.92 1014.08 1014.30 1014.59 1014.91 1015.25 1015.58
1006.39 1007.96 1009.32 1010.33 1010.92 1011.07 1010.84 1010.35 1009.74 1009.18 1008.80 1008.67 1008.80 1009.14 1009.62 1010.13 1010.59 1010.94 1011.18 1011.31 1011.39 1011.46 1011.57 1011.72 1011.91 1012.11 1012.29 1012.42 1012.49 1012.51 1012.51 1012.52 1012.57 1012.68 1012.85 1013.05 1013.25 1013.44 1013.60 1013.71 1013.81 1013.92 1014.07 1014.28 1014.56 1014.90 1015.27 1015.64 1015.97
1006.85 1008.21 1009.33 1010.10 1010.50 1010.52 1010.25 1009.81 1009.32 1008.92 1008.72 1008.74 1009.00 1009.42 1009.95 1010.47 1010.93 1011.28 1011.51 1011.66 1011.75 1011.84 1011.94 1012.07 1012.22 1012.36 1012.46 1012.52 1012.53 1012.51 1012.50 1012.53 1012.61 1012.77 1012.98 1013.21 1013.43 1013.62 1013.77 1013.88 1013.97 1014.09 1014.26 1014.51 1014.83 1015.21 1015.61 1015.99 1016.32
1007.09 1008.21 1009.07 1009.61 1009.83 1009.77 1009.51 1009.16 1008.83 1008.63 1008.62 1008.81 1009.19 1009.69 1010.24 1010.77 1011.21 1011.55 1011.78 1011.94 1012.05 1012.15 1012.26 1012.38 1012.49 1012.58 1012.63 1012.62 1012.59 1012.55 1012.54 1012.60 1012.72 1012.92 1013.17 1013.43 1013.67 1013.86 1014.00 1014.10 1014.19 1014.30 1014.49 1014.75 1015.09 1015.48 1015.89 1016.26 1016.57
1007.15 1008.01 1008.62 1008.96 1009.05 1008.94 1008.73 1008.50 1008.35 1008.34 1008.51 1008.86 1009.34 1009.90 1010.46 1010.98 1011.40 1011.73 1011.96 1012.13 1012.27 1012.40 1012.53 1012.65 1012.75 1012.81 1012.81 1012.78 1012.72 1012.67 1012.67 1012.75 1012.91 1013.14 1013.42 1013.71 1013.96 1014.15 1014.28 1014.36 1014.44 1014.55 1014.72 1014.98 1015.32 1015.70 1016.09 1016.44 1016.70
1007.12 1007.75 1008.14 1008.32 1008.31 1008.19 1008.05 1007.95 1007.96 1008.13 1008.46 1008.92 1009.47 1010.05 1010.61 1011.10 1011.50 1011.81 1012.05 1012.24 1012.41 1012.58 1012.74 1012.88 1012.99 1013.04 1013.04 1012.99 1012.92 1012.87 1012.88 1012.98 1013.16 1013.41 1013.71 1014.01 1014.26 1014.45 1014.57 1014.65 1014.71 1014.80 1014.96 1015.20 1015.51 1015.87 1016.22 1016.52 1016.74
1007.12 1007.56 1007.79 1007.84 1007.78 1007.68 1007.61 1007.63 1007.78 1008.08 1008.51 1009.04 1009.62 1010.19 1010.72 1011.17 1011.54 1011.84 1012.08 1012.30 1012.51 1012.72 1012.91 1013.09 1013.21 1013.28 1013.28 1013.24 1013.18 1013.14 1013.15 1013.25 1013.44 1013.70 1013.99 1014.28 1014.53 1014.72 1014.84 1014.91 1014.97 1015.05 1015.20 1015.41 1015.69 1015.99 1016.29 1016.54 1016.71
1007.26 1007.56 1007.67 1007.65 1007.58 1007.52 1007.53 1007.65 1007.90 1008.28 1008.76 1009.30 1009.85 1010.38 1010.86 1011.26 1011.59 1011.87 1012.11 1012.35 1012.59 1012.83 1013.06 1013.26 1013.41 1013.50 1013.52 1013.50 1013.45 1013.43 1013.45 1013.54 1013.72 1013.96 1014.23 1014.50 1014.74 1014.93 1015.05 1015.13 1015.20 1015.29 1015.42 1015.61 1015.85 1016.11 1016.35 1016.54 1016.65
1007.60 1007.81 1007.86 1007.83 1007.78 1007.77 1007.85 1008.05 1008.36 1008.76 1009.23 1009.73 1010.23 1010.68 1011.08 1011.42 1011.71 1011.97 1012.20 1012.44 1012.68 1012.93 1013.17 1013.39 1013.56 1013.67 1013.73 1013.73 1013.72 1013.71 1013.73 1013.82 1013.97 1014.17 1014.41 1014.65 1014.88 1015.06 1015.20 1015.31 1015.40 1015.51 1015.64 1015.81 1016.01 1016.22 1016.41 1016.55 1016.61
1008.11 1008.28 1008.33 1008.32 1008.33 1008.39 1008.54 1008.78 1009.10 1009.49 1009.90 1010.33 1010.73 1011.10 1011.42 1011.70 1011.94 1012.16 1012.37 1012.59 1012.81 1013.04 1013.26 1013.47 1013.65 1013.78 1013.87 1013.92 1013.94 1013.96 1014.00 1014.07 1014.19 1014.35 1014.54 1014.75 1014.95 1015.14 1015.30 1015.44 1015.57 1015.70 1015.85 1016.01 1016.19 1016.36 1016.49 1016.58 1016.61
1008.71 1008.88 1008.96 1009.02 1009.10 1009.25 1009.46 1009.73 1010.03 1010.37 1010.70 1011.02 1011.32 1011.60 1011.84 1012.07 1012.27 1012.45 1012.63 1012.81 1012.98 1013.16 1013.34 1013.52 1013.68 1013.83 1013.95 1014.05 1014.13 1014.18 1014.24 1014.31 1014.40 1014.51 1014.66 1014.82 1015.00 1015.18 1015.36 1015.53 1015.70 1015.87 1016.03 1016.20 1016.35 1016.49 1016.59 1016.64 1016.64
1009.26 1009.45 1009.61 1009.77 1009.97 1010.21 1010.48 1010.76 1011.03 1011.29 1011.52 1011.73 1011.93 1012.12 1012.30 1012.49 1012.66 1012.82 1012.96 1013.08 1013.19 1013.30 1013.41 1013.53 1013.67 1013.83 1013.99 1014.14 1014.28 1014.40 1014.49 1014.56 1014.63 1014.70 1014.79 1014.90 1015.05 1015.21 1015.40 1015.60 1015.80 1016.00 1016.18 1016.34 1016.48 1016.59 1016.66 1016.69 1016.68
1009.64 1009.89 1010.15 1010.45 1010.78 1011.13 1011.46 1011.75 1011.98 1012.14 1012.26 1012.36 1012.46 1012.58 1012.72 1012.89 1013.06 1013.21 1013.32 1013.39 1013.43 1013.45 1013.48 1013.54 1013.65 1013.80 1014.00 1014.21 1014.42 1014.61 1014.75 1014.84 1014.89 1014.93 1014.96 1015.01 1015.11 1015.25 1015.43 1015.64 1015.85 1016.07 1016.26 1016.42 1016.55 1016.64 1016.70 1016.72 1016.71
1009.77 1010.11 1010.51 1010.97 1011.45 1011.92 1012.31 1012.61 1012.77 1012.84 1012.84 1012.82 1012.84 1012.90 1013.03 1013.20 1013.39 1013.55 1013.66 1013.70 1013.68 1013.62 1013.57 1013.56 1013.62 1013.78 1014.00 1014.28 1014.57 1014.82 1015.02 1015.13 1015.18 1015.18 1015.15 1015.15 1015.18 1015.28 1015.43 1015.63 1015.85 1016.07 1016.27 1016.42 1016.53 1016.61 1016.66 1016.68 1016.69
1009.63 1010.09 1010.66 1011.31 1011.97 1012.56 1013.01 1013.30 1013.40 1013.35 1013.22 1013.09 1013.01 1013.03 1013.16 1013.36 1013.59 1013.79 1013.92 1013.96 1013.90 1013.78 1013.66 1013.59 1013.62 1013.76 1014.01 1014.34 1014.70 1015.02 1015.27 1015.41 1015.46 1015.42 1015.35 1015.27 1015.25 1015.29 1015.40 1015.58 1015.79 1016.00 1016.18 1016.33 1016.43 1016.50 1016.54 1016.58 1016.62
1009.28 1009.90 1010.67 1011.52 1012.36 1013.07 1013.58 1013.84 1013.85 1013.67 1013.40 1013.14 1012.97 1012.94 1013.07 1013.31 1013.61 1013.89 1014.07 1014.13 1014.07 1013.92 1013.75 1013.63 1013.63 1013.76 1014.02 1014.39 1014.80 1015.17 1015.47 1015.63 1015.67 1015.61 1015.48 1015.35 1015.26 1015.25 1015.32 1015.46 1015.65 1015.84 1016.02 1016.16 1016.25 1016.31 1016.36 1016.42 1016.49
1008.85 1009.65 1010.63 1011.70 1012.71 1013.53 1014.06 1014.27 1014.17 1013.84 1013.40 1013.00 1012.72 1012.64 1012.77 1013.06 1013.44 1013.80 1014.07 1014.19 1014.16 1014.01 1013.83 1013.68 1013.64 1013.76 1014.02 1014.40 1014.83 1015.24 1015.56 1015.74 1015.77 1015.69 1015.52 1015.34 1015.21 1015.14 1015.17 1015.29 1015.46 1015.64 1015.81 1015.94 1016.03 1016.09 1016.14 1016.22 1016.32
1008.47 1009.46 1010.66 1011.92 1013.07 1013.97 1014.50 1014.63 1014.39 1013.89 1013.27 1012.71 1012.31 1012.17 1012.29 1012.63 1013.09 1013.55 1013.91 1014.12 1014.15 1014.04 1013.86 1013.70 1013.64 1013.74 1013.99 1014.36 1014.80 1015.21 1015.53 1015.72 1015.74 1015.64 1015.45 1015.24 1015.07 1014.98 1014.99 1015.09 1015.24 1015.42 1015.59 1015.72 1015.81 1015.87 1015.93 1016.01 1016.14
1008.25 1009.43 1010.81 1012.22 1013.48 1014.41 1014.91 1014.93 1014.54 1013.85 1013.04 1012.31 1011.79 1011.58 1011.68 1012.05 1012.59 1013.15 1013.62 1013.93 1014.04 1013.99 1013.84 1013.69 1013.62 1013.69 1013.92 1014.27 1014.68 1015.08 1015.39 1015.57 1015.59 1015.48 1015.28 1015.06 1014.89 1014.79 1014.79 1014.89 1015.05 1015.24 1015.41 1015.54 1015.63 1015.70 1015.76 1015.84 1015.97
1008.25 1009.58 1011.09 1012.61 1013.91 1014.82 1015.24 1015.14 1014.58 1013.71 1012.74 1011.85 1011.21 1010.93 1011.01 1011.40 1012.00 1012.65 1013.22 1013.63 1013.84 1013.86 1013.76 1013.63 1013.56 1013.61 1013.81 1014.12 1014.50 1014.87 1015.17 1015.34 1015.36 1015.25 1015.07 1014.86 1014.70 1014.62 1014.64 1014.75 1014.93 1015.13 1015.31 1015.45 1015.55 1015.61 1015.66 1015.73 1015.84
1008.47 1009.89 1011.47 1013.01 1014.29 1015.14 1015.46 1015.22 1014.52 1013.50 1012.38 1011.37 1010.64 1010.30 1010.36 1010.76 1011.40 1012.12 1012.77 1013.27 1013.57 1013.66 1013.62 1013.53 1013.47 1013.51 1013.67 1013.95 1014.29 1014.63 1014.91 1015.07 1015.10 1015.01 1014.86 1014.69 1014.57 1014.52 1014.57 1014.72 1014.92 1015.13 1015.33 1015.47 1015.57 1015.61 1015.65 1015.70 1015.78
1008.86 1010.30 1011.87 1013.35 1014.55 1015.30 1015.49 1015.14 1014.32 1013.20 1011.99 1010.92 1010.14 1009.76 1009.80 1010.21 1010.87 1011.62 1012.33 1012.89 1013.25 1013.41 1013.42 1013.37 1013.32 1013.36 1013.51 1013.75 1014.06 1014.38 1014.65 1014.81 1014.87 1014.82 1014.72 1014.60 1014.53 1014.54 1014.63 1014.81 1015.03 1015.26 1015.46 1015.60 1015.69 1015.72 1015.73 1015.75 1015.80
1009.36 1010.74 1012.21 1013.57 1014.64 1015.25 1015.33 1014.89 1014.01 1012.85 1011.63 1010.55 1009.77 1009.39 1009.43 1009.83 1010.48 1011.23 1011.95 1012.53 1012.93 1013.12 1013.17 1013.15 1013.12 1013.16 1013.30 1013.53 1013.83 1014.13 1014.40 1014.59 1014.68 1014.69 1014.65 1014.61 1014.60 1014.66 1014.80 1015.01 1015.25 1015.49 1015.69 1015.83 1015.90 1015.92 1015.90 1015.89 1015.90
1009.88 1011.14 1012.45 1013.64 1014.54 1015.02 1015.01 1014.51 1013.63 1012.51 1011.35 1010.34 1009.61 1009.27 1009.31 1009.68 1010.29 1011.00 1011.68 1012.23 1012.61 1012.80 1012.86 1012.85 1012.84 1012.89 1013.03 1013.26 1013.55 1013.86 1014.15 1014.37 1014.52 1014.60 1014.64 1014.68 1014.75 1014.87 1015.06 1015.30 1015.56 1015.80 1016.00 1016.12 1016.18 1016.18 1016.14 1016.10 1016.08
1010.39 1011.49 1012.61 1013.60 1014.33 1014.68 1014.60 1014.11 1013.29 1012.28 1011.25 1010.35 1009.72 1009.43 1009.47 1009.81 1010.34 1010.95 1011.53 1011.99 1012.30 1012.46 1012.49 1012.48 1012.47 1012.52 1012.66 1012.90 1013.20 1013.53 1013.84 1014.12 1014.33 1014.49 1014.63 1014.76 1014.91 1015.10 1015.34 1015.62 1015.89 1016.14 1016.32 1016.44 1016.48 1016.46 1016.41 1016.36 1016.32
Thickness
5824 5819 5814 5801 5778 5753 5745 5755 5763 5760 5760 5766 5768 5762 5753 5747 5742 5737 5756 5765 5766 5766 5766 5766 5766 5765 5765 5765 5765 5765 5765 5765 5765 5766 5766 5766 5766 5766 5766 5765 5765 5765 5764 5764 5763 5763 5763 5762 5761
5826 5820 5809 5791 5760 5736 5743 5760 5760 5763 5767 5771 5769 5763 5755 5750 5755 5755 5759 5764 5766 5765 5765 5764 5764 5764 5763 5763 5764 5764 5764 5764 5764 5764 5764 5764 5764 5764 5764 5764 5763 5763 5762 5761 5761 5760 5760 5759 5758
5828 5822 5800 5779 5757 5744 5750 5763 5765 5771 5775 5772 5765 5763 5756 5752 5758 5759 5763 5766 5765 5764 5763 5763 5763 5762 5762 5762 5762 5762 5762 5762 5762 5762 5762 5762 5762 5762 5762 5762 5762 5761 5760 5760 5759 5758 5758 5757 5756
5827 5812 5796 5773 5760 5765 5768 5770 5774 5771 5773 5773 5766 5757 5759 5765 5765 5765 5767 5766 5763 5762 5762 5762 5761 5761 5761 5760 5761 5761 5761 5761 5761 5761 5760 5760 5760 5760 5760 5760 5760 5759 5758 5758 5757 5757 5756 5755 5754
5825 5802 5779 5762 5765 5774 5779 5781 5779 5772 5768 5768 5765 5753 5753 5764 5770 5768 5767 5765 5762 5761 5761 5760 5760 5760 5760 5759 5759 5759 5759 5760 5760 5759 5759 5759 5759 5759 5759 5758 5758 5757 5757 5756 5756 5755 5754 5753 5752
5812 5795 5766 5756 5766 5776 5780 5784 5780 5772 5769 5769 5764 5754 5753 5765 5766 5766 5765 5763 5762 5761 5760 5760 5760 5759 5759 5758 5758 5759 5760 5759 5759 5758 5758 5758 5757 5757 5757 5757 5756 5756 5755 5755 5754 5753 5753 5752 5751
5806 5788 5771 5768 5768 5773 5781 5787 5779 5773 5769 5770 5769 5754 5754 5762 5766 5766 5764 5762 5761 5760 5759 5759 5759 5758 5758 5758 5757 5759 5760 5759 5758 5757 5757 5756 5756 5756 5755 5755 5755 5755 5754 5754 5753 5753 5752 5751 5750
5817 5793 5777 5772 5771 5774 5787 5789 5787 5780 5775 5782 5777 5758 5754 5763 5767 5765 5762 5760 5759 5759 5758 5758 5758 5757 5757 5757 5757 5758 5759 5758 5758 5756 5755 5755 5755 5754 5754 5754 5754 5754 5753 5753 5753 5752 5751 5750 5749
5825 5789 5772 5778 5778 5782 5792 5787 5789 5792 5784 5782 5781 5774 5772 5772 5768 5762 5758 5756 5756 5757 5757 5757 5757 5756 5756 5756 5757 5757 5757 5757 5756 5755 5755 5754 5753 5753 5753 5753 5753 5753 5753 5752 5752 5750 5749 5749 5748
5814 5784 5788 5800 5800 5796 5796 5792 5789 5784 5776 5774 5774 5775 5776 5771 5765 5759 5755 5753 5753 5754 5756 5757 5757 5756 5756 5756 5756 5756 5755 5755 5755 5754 5753 5752 5752 5752 5752 5752 5752 5752 5751 5751 5751 5749 5748 5747 5747
5816 5800 5806 5810 5813 5808 5799 5795 5795 5781 5771 5775 5773 5772 5772 5768 5764 5760 5757 5756 5755 5756 5757 5758 5757 5756 5756 5755 5755 5755 5755 5754 5753 5753 5752 5752 5751 5751 5751 5751 5751 5750 5750 5749 5748 5748 5747 5746 5746
5818 5816 5818 5816 5817 5810 5802 5798 5792 5786 5784 5790 5786 5780 5774 5767 5763 5761 5759 5758 5758 5757 5757 5758 5758 5757 5756 5755 5755 5754 5754 5753 5753 5752 5752 5751 5750 5750 5750 5749 5749 5749 5748 5748 5747 5747 5746 5746 5745
5820 5818 5821 5820 5817 5812 5806 5797 5793 5790 5795 5794 5788 5780 5773 5769 5766 5765 5764 5762 5760 5758 5759 5759 5759 5758 5757 5756 5755 5755 5754 5753 5753 5752 5752 5751 5750 5749 5749 5748 5748 5748 5747 5747 5746 5746 5745 5745 5745
5824 5822 5819 5818 5815 5812 5802 5797 5793 5790 5796 5790 5784 5778 5775 5772 5769 5766 5764 5762 5762 5761 5760 5761 5760 5759 5758 5756 5756 5755 5755 5754 5753 5753 5752 5751 5750 5749 5748 5747 5747 5747 5747 5746 5745 5745 5744 5744 5744
5828 5815 5811 5813 5813 5810 5803 5787 5789 5795 5795 5787 5783 5780 5777 5774 5772 5769 5768 5767 5766 5764 5763 5762 5761 5760 5759 5757 5756 5756 5755 5754 5753 5753 5752 5751 5750 5749 5748 5747 5746 5746 5746 5746 5745 5744 5744 5743 5743
5818 5802 5791 5805 5811 5809 5796 5774 5791 5798 5793 5785 5784 5782 5779 5777 5776 5775 5774 5771 5769 5767 5765 5764 5765 5762 5760 5759 5757 5756 5756 5755 5754 5753 5752 5751 5750 5749 5747 5746 5746 5746 5745 5745 5744 5743 5742 5742 5741
5795 5784 5785 5797 5810 5807 5795 5782 5794 5800 5794 5786 5785 5783 5781 5778 5777 5777 5777 5775 5773 5770 5767 5766 5765 5763 5761 5760 5758 5757 5756 5755 5754 5753 5752 5752 5751 5749 5748 5747 5746 5745 5744 5744 5744 5743 5742 5740 5740
5785 5785 5787 5790 5804 5802 5791 5788 5795 5799 5795 5789 5787 5785 5783 5781 5781 5781 5780 5778 5776 5773 5770 5768 5766 5765 5763 5760 5758 5756 5755 5755 5754 5753 5753 5752 5751 5750 5748 5747 5746 5745 5743 5742 5742 5741 5741 5739 5739
5803 5793 5788 5795 5808 5799 5791 5790 5793 5798 5795 5790 5787 5786 5785 5785 5787 5785 5783 5780 5777 5774 5771 5769 5766 5765 5763 5759 5756 5754 5753 5753 5753 5753 5753 5752 5751 5749 5748 5746 5745 5744 5743 5742 5741 5740 5738 5737 5737
5802 5791 5789 5797 5808 5799 5789 5789 5796 5799 5798 5797 5793 5790 5789 5788 5787 5786 5784 5782 5778 5775 5773 5770 5768 5765 5763 5761 5759 5757 5755 5754 5753 5753 5753 5752 5750 5749 5748 5746 5744 5743 5742 5740 5739 5738 5735 5735 5735
5798 5793 5792 5792 5798 5797 5790 5783 5789 5798 5801 5800 5799 5797 5795 5792 5789 5787 5785 5783 5780 5777 5775 5773 5770 5767 5765 5763 5760 5758 5755 5753 5751 5751 5751 5751 5750 5748 5746 5745 5744 5742 5741 5739 5738 5737 5735 5732 5732
5793 5808 5804 5797 5782 5771 5781 5758 5781 5789 5792 5797 5799 5798 5797 5797 5794 5790 5788 5785 5783 5782 5779 5775 5772 5769 5767 5765 5761 5757 5753 5750 5750 5750 5750 5750 5748 5747 5745 5744 5743 5741 5740 5738 5737 5737 5735 5733 5729
5805 5813 5804 5794 5780 5768 5771 5759 5770 5786 5784 5793 5800 5803 5803 5801 5798 5794 5792 5790 5788 5785 5781 5778 5774 5771 5768 5766 5763 5759 5755 5753 5752 5751 5750 5748 5748 5746 5745 5743 5742 5740 5739 5738 5736 5735 5733 5732 5729
5813 5799 5788 5775 5765 5751 5762 5757 5762 5778 5788 5798 5804 5806 5806 5804 5802 5798 5795 5792 5787 5785 5782 5779 5774 5771 5769 5767 5764 5760 5757 5754 5752 5750 5748 5747 5746 5745 5744 5743 5741 5739 5738 5737 5736 5735 5733 5731 5729
5803 5776 5750 5746 5736 5741 5761 5758 5766 5796 5804 5807 5807 5809 5809 5807 5802 5798 5795 5790 5786 5784 5781 5778 5774 5771 5769 5767 5764 5762 5759 5756 5753 5750 5748 5746 5744 5743 5743 5742 5739 5738 5737 5735 5734 5733 5731 5730 5728
5793 5781 5750 5735 5732 5740 5755 5755 5781 5805 5811 5814 5813 5812 5810 5806 5803 5800 5797 5793 5788 5785 5782 5778 5774 5771 5768 5766 5764 5762 5760 5757 5754 5751 5749 5746 5744 5743 5742 5741 5738 5737 5735 5734 5732 5730 5729 5728 5727
5787 5777 5778 5751 5742 5737 5745 5763 5786 5805 5807 5808 5809 5808 5807 5805 5803 5800 5798 5795 5791 5786 5783 5780 5776 5772 5768 5766 5764 5761 5759 5756 5754 5751 5748 5746 5744 5742 5740 5739 5737 5735 5734 5732 5730 5728 5726 5725 5724
5798 5779 5761 5746 5730 5728 5744 5754 5764 5789 5795 5801 5803 5803 5804 5804 5801 5799 5797 5794 5791 5788 5783 5780 5777 5773 5769 5767 5764 5762 5759 5756 5753 5750 5747 5744 5742 5740 5738 5736 5734 5732 5731 5729 5727 5725 5724 5722 5721
5782 5773 5758 5744 5745 5729 5728 5750 5788 5792 5797 5798 5802 5804 5803 5801 5800 5798 5796 5794 5791 5787 5783 5779 5775 5771 5768 5766 5763 5760 5757 5754 5751 5748 5745 5742 5740 5738 5735 5734 5732 5729 5727 5726 5724 5722 5720 5718 5717
5792 5777 5764 5752 5740 5737 5736 5754 5800 5799 5801 5801 5801 5803 5802 5801 5799 5796 5794 5791 5787 5784 5781 5777 5774 5770 5767 5764 5761 5759 5756 5752 5749 5745 5742 5740 5737 5735 5733 5731 5729 5726 5725 5723 5721 5718 5716 5715 5713